| time (UTC) | temp F | wind direction | speed knots | gust knots | rain 1hr in | rain 24hr in | rain mn in | humidity % | barometer mb |
| 20260505124539 | 54 | 193 | 3.5 | 8.7 | 0.00 | 0.00 | 0.00 | 90 | 1010.6 |
| 20260505123048 | 54 | 209 | 4.3 | 8.7 | 0.00 | 0.00 | 0.00 | 89 | 1010.6 |
| 20260505121536 | 54 | 219 | 4.3 | 7.8 | 0.00 | 0.00 | 0.00 | 89 | 1010.2 |
| 20260505120049 | 54 | 207 | 4.3 | 8.7 | 0.00 | 0.00 | 0.00 | 88 | 1010.1 |
| 20260505114533 | 55 | 201 | 4.3 | 10.4 | 0.00 | 0.00 | 0.00 | 88 | 1010.0 |
| 20260505113032 | 55 | 190 | 5.2 | 11.3 | 0.00 | 0.00 | 0.00 | 87 | 1009.8 |
| 20260505111534 | 55 | 232 | 4.3 | 9.6 | 0.00 | 0.00 | 0.00 | 87 | 1009.7 |
| 20260505101521 | 54 | 232 | 3.5 | 5.2 | 0.00 | 0.00 | 0.00 | 86 | 1009.1 |
| 20260505100021 | 54 | 223 | 1.7 | 4.3 | 0.00 | 0.00 | 0.00 | 85 | 1009.0 |
| 20260505094520 | 53 | 193 | 0.9 | 4.3 | 0.00 | 0.00 | 0.00 | 84 | 1009.1 |
| 20260505093017 | 53 | 182 | 0.0 | 0.0 | 0.00 | 0.00 | 0.00 | 83 | 1009.0 |
| 20260505091515 | 54 | 182 | 0.0 | 3.5 | 0.00 | 0.00 | 0.00 | 84 | 1008.9 |
| 20260505090014 | 54 | 226 | 0.0 | 3.5 | 0.00 | 0.00 | 0.00 | 85 | 1008.7 |
| 20260505084512 | 54 | 226 | 0.0 | 1.7 | 0.00 | 0.00 | 0.00 | 86 | 1008.6 |
| 20260505083008 | 54 | 226 | 1.7 | 2.6 | 0.00 | 0.00 | 0.00 | 84 | 1008.2 |
| 20260505081506 | 55 | 226 | 1.7 | 4.3 | 0.00 | 0.00 | 0.00 | 84 | 1008.1 |
| 20260505080004 | 55 | 226 | 0.9 | 2.6 | 0.00 | 0.00 | 0.00 | 84 | 1008.1 |
| 20260505074502 | 56 | 226 | 1.7 | 3.5 | 0.00 | 0.00 | 0.00 | 82 | 1007.8 |
| 20260505073102 | 56 | 200 | 0.9 | 1.7 | 0.00 | 0.00 | 0.00 | 82 | 1007.6 |
| 20260505071556 | 57 | 200 | 0.9 | 3.5 | 0.00 | 0.00 | 0.00 | 82 | 1007.5 |
| 20260505070100 | 57 | 212 | 0.9 | 5.2 | 0.00 | 0.00 | 0.00 | 81 | 1007.3 |
| 20260505064629 | 57 | 228 | 0.9 | 3.5 | 0.00 | 0.00 | 0.00 | 81 | 1007.1 |
| 20260505063052 | 58 | 228 | 0.9 | 5.2 | 0.00 | 0.00 | 0.00 | 81 | 1007.0 |
| 20260505061552 | 58 | 197 | 4.3 | 6.1 | 0.00 | 0.00 | 0.00 | 82 | 1006.9 |
| 20260505060050 | 58 | 214 | 0.9 | 2.6 | 0.00 | 0.00 | 0.00 | 82 | 1007.0 |
| 20260505054552 | 59 | 214 | 0.9 | 1.7 | 0.00 | 0.00 | 0.00 | 82 | 1006.8 |
| 20260505053048 | 59 | 214 | 0.9 | 1.7 | 0.00 | 0.00 | 0.00 | 82 | 1006.9 |
| 20260505051548 | 59 | 214 | 0.9 | 3.5 | 0.00 | 0.00 | 0.00 | 81 | 1006.4 |
| 20260505041546 | 62 | 214 | 0.9 | 2.6 | 0.00 | 0.00 | 0.00 | 74 | 1006.0 |
| 20260505040053 | 62 | 214 | 0.9 | 1.7 | 0.00 | 0.00 | 0.00 | 71 | 1005.9 |
| 20260505034605 | 64 | 214 | 0.0 | 0.0 | 0.00 | 0.00 | 0.00 | 68 | 1005.8 |
| 20260505033045 | 66 | 214 | 0.0 | 0.0 | 0.00 | 0.00 | 0.00 | 64 | 1005.6 |
| 20260505031545 | 67 | 214 | 0.0 | 0.0 | 0.00 | 0.00 | 0.00 | 63 | 1005.5 |
| 20260505030048 | 68 | 214 | 0.9 | 3.5 | 0.00 | 0.00 | 0.00 | 60 | 1005.4 |
| 20260505024544 | 68 | 214 | 2.6 | 4.3 | 0.00 | 0.00 | 0.00 | 60 | 1005.4 |
| 20260505023044 | 69 | 236 | 1.7 | 5.2 | 0.00 | 0.00 | 0.00 | 59 | 1005.5 |
| 20260505021540 | 71 | 215 | 3.5 | 5.2 | 0.00 | 0.00 | 0.00 | 58 | 1005.6 |
| 20260505020053 | 72 | 212 | 2.6 | 7.0 | 0.00 | 0.00 | 0.00 | 58 | 1005.7 |
| 20260505014541 | 73 | 189 | 1.7 | 5.2 | 0.00 | 0.00 | 0.00 | 56 | 1005.7 |
| 20260505013041 | 74 | 200 | 4.3 | 9.6 | 0.00 | 0.00 | 0.00 | 54 | 1005.8 |
| 20260505011537 | 76 | 223 | 4.3 | 7.8 | 0.00 | 0.00 | 0.00 | 54 | 1005.7 |
| 20260505010040 | 77 | 188 | 3.5 | 6.1 | 0.00 | 0.00 | 0.00 | 54 | 1005.8 |
| 20260505004556 | 79 | 211 | 2.6 | 6.1 | 0.00 | 0.00 | 0.00 | 54 | 1005.7 |
| 20260505003035 | 78 | 174 | 4.3 | 7.8 | 0.00 | 0.00 | 0.00 | 51 | 1005.7 |
| 20260505001537 | 78 | 209 | 4.3 | 8.7 | 0.00 | 0.00 | 0.00 | 48 | 1005.9 |
| 20260505000036 | 78 | 223 | 6.1 | 7.8 | 0.00 | 0.00 | 0.00 | 49 | 1005.9 |
| 20260504234531 | 79 | 205 | 3.5 | 7.8 | 0.00 | 0.00 | 0.00 | 52 | 1006.2 |
| 20260504233030 | 78 | 223 | 3.5 | 8.7 | 0.00 | 0.00 | 0.00 | 48 | 1006.2 |
| 20260504231529 | 78 | 162 | 3.5 | 8.7 | 0.00 | 0.00 | 0.00 | 50 | 1006.3 |
| 20260504230028 | 78 | 196 | 3.5 | 9.6 | 0.00 | 0.00 | 0.00 | 51 | 1006.4 |
| 20260504224533 | 78 | 235 | 5.2 | 8.7 | 0.00 | 0.00 | 0.00 | 51 | 1006.5 |
| 20260504223026 | 78 | 230 | 7.0 | 9.6 | 0.00 | 0.00 | 0.00 | 53 | 1006.6 |
| 20260504221535 | 78 | 229 | 5.2 | 8.7 | 0.00 | 0.00 | 0.00 | 53 | 1006.7 |
| 20260504220023 | 78 | 222 | 4.3 | 8.7 | 0.00 | 0.00 | 0.00 | 53 | 1006.8 |
| 20260504214521 | 77 | 212 | 4.3 | 9.6 | 0.00 | 0.00 | 0.00 | 57 | 1006.8 |
| 20260504213035 | 77 | 218 | 5.2 | 8.7 | 0.00 | 0.00 | 0.00 | 57 | 1006.8 |
| 20260504211522 | 77 | 208 | 6.1 | 10.4 | 0.00 | 0.00 | 0.00 | 58 | 1006.7 |
| 20260504210020 | 77 | 206 | 5.2 | 7.8 | 0.00 | 0.00 | 0.00 | 57 | 1006.9 |
| 20260504204519 | 77 | 226 | 5.2 | 10.4 | 0.00 | 0.00 | 0.00 | 55 | 1007.2 |
| 20260504203017 | 77 | 223 | 5.2 | 8.7 | 0.00 | 0.00 | 0.00 | 55 | 1007.2 |
| 20260504201515 | 76 | 236 | 5.2 | 8.7 | 0.00 | 0.00 | 0.00 | 56 | 1007.4 |
| 20260504200013 | 76 | 234 | 3.5 | 8.7 | 0.00 | 0.00 | 0.00 | 60 | 1007.2 |
| 20260504194517 | 74 | 228 | 4.3 | 8.7 | 0.00 | 0.00 | 0.00 | 61 | 1007.3 |
| 20260504193013 | 74 | 190 | 3.5 | 8.7 | 0.00 | 0.00 | 0.00 | 62 | 1007.3 |
| 20260504191510 | 74 | 231 | 7.0 | 11.3 | 0.00 | 0.00 | 0.00 | 62 | 1007.4 |
| 20260504190014 | 74 | 219 | 7.0 | 10.4 | 0.00 | 0.00 | 0.00 | 63 | 1007.3 |
| 20260504184526 | 74 | 227 | 6.1 | 8.7 | 0.00 | 0.00 | 0.00 | 60 | 1007.5 |
| 20260504183040 | 75 | 225 | 5.2 | 7.8 | 0.00 | 0.00 | 0.00 | 58 | 1007.4 |
| 20260504181540 | 75 | 326 | 0.0 | 4.3 | 0.00 | 0.00 | 0.00 | 55 | 1007.3 |
| 20260504180037 | 74 | 360 | 2.6 | 5.2 | 0.00 | 0.00 | 0.00 | 55 | 1007.4 |
| 20260504174533 | 74 | 304 | 2.6 | 7.0 | 0.00 | 0.00 | 0.00 | 55 | 1007.4 |
| 20260504173028 | 72 | 360 | 0.9 | 4.3 | 0.00 | 0.00 | 0.00 | 59 | 1007.5 |
| 20260504171526 | 71 | 26 | 4.3 | 7.8 | 0.00 | 0.00 | 0.00 | 60 | 1007.7 |